Theta_e
298 298 302 302 306 308 309 310 310 310 310 309 309 310 310 312 312 314 316 315 316 316 315 314 315 315 314 314 314 312 311 317 327 324 325 328 330 330 332 332 332 332 326
296 298 299 299 305 307 308 308 309 310 310 311 312 312 311 312 313 314 314 315 315 316 315 314 314 315 315 314 315 314 312 312 321 320 318 316 316 326 331 332 332 332 333
294 296 298 297 301 304 304 307 308 309 311 313 313 313 312 312 311 312 312 314 315 315 315 316 317 314 316 315 315 314 313 312 312 321 318 310 310 313 322 327 329 330 331
297 296 297 297 300 303 303 306 309 310 312 312 312 310 309 308 310 310 312 313 317 317 317 316 315 315 317 316 315 316 316 315 313 313 320 322 316 311 310 318 323 328 328
296 297 297 299 300 304 304 305 307 309 311 311 311 310 308 309 310 311 311 314 315 315 316 316 315 317 317 317 316 315 315 315 316 316 315 314 317 320 317 312 313 319 326
298 299 301 302 301 303 305 306 307 308 309 310 310 309 308 308 308 308 309 312 312 313 315 316 316 317 316 317 317 317 316 315 316 316 318 316 313 313 314 314 315 316 318
299 300 300 301 302 302 304 306 306 306 308 308 308 309 308 307 307 308 308 307 309 311 312 313 314 314 314 316 318 317 316 316 316 316 316 317 318 319 317 315 314 314 316
293 296 300 301 301 303 303 304 305 305 307 307 307 307 307 307 308 309 309 308 308 309 312 312 312 312 313 314 315 315 317 317 317 317 317 318 318 318 319 318 315 312 313
291 292 293 296 299 300 302 303 303 303 304 305 306 305 305 305 306 307 309 309 309 310 312 312 311 311 311 313 314 314 314 316 317 317 318 317 318 319 320 319 318 314 308
292 291 291 292 293 294 299 301 302 303 303 304 304 304 303 304 304 305 306 307 308 308 309 310 310 310 308 309 311 312 313 315 316 317 316 317 318 318 319 318 318 317 314
290 290 290 291 292 292 293 295 299 301 302 303 303 303 303 303 304 303 304 306 307 308 308 309 309 308 306 309 308 309 309 312 315 317 316 316 317 317 318 319 319 317 317
291 291 292 293 293 293 293 293 294 296 300 302 303 303 303 303 303 303 304 305 305 307 307 307 308 306 305 306 306 305 306 305 306 308 314 315 317 317 318 318 317 317 317
289 290 291 292 293 294 295 295 295 295 295 297 299 301 302 303 302 303 303 304 305 306 306 306 305 304 304 306 306 305 303 302 303 303 303 306 313 315 315 316 315 315 315
291 290 291 291 292 292 293 294 295 296 296 296 296 297 298 301 302 303 303 303 304 305 304 304 304 304 304 306 305 304 302 302 302 304 305 305 306 309 316 315 315 315 314
290 291 291 292 292 292 292 294 294 295 295 295 296 296 297 299 301 302 302 302 302 303 304 304 304 305 305 305 303 302 301 301 301 302 304 306 306 305 311 315 313 314 313
291 292 293 292 292 291 294 294 294 295 294 295 295 296 297 297 299 301 302 302 301 301 302 302 303 304 304 304 303 302 300 300 300 299 300 302 302 306 307 307 307 312 313
291 292 293 293 293 293 295 292 294 295 295 295 294 295 296 296 298 300 301 301 300 300 300 301 302 303 303 304 303 302 299 298 298 297 298 299 302 302 303 305 307 305 304
292 293 294 294 293 294 294 295 294 294 295 294 294 294 295 295 297 297 298 299 299 299 299 299 300 300 302 303 303 301 298 294 297 297 297 298 298 299 301 302 299 297 297
292 294 294 292 292 292 294 294 293 294 294 295 295 296 295 294 295 296 297 298 297 298 298 298 298 298 298 301 301 299 294 293 296 296 296 297 298 299 299 297 294 293 293
293 292 291 293 292 292 294 293 293 294 293 295 295 296 296 295 295 295 296 297 296 298 297 297 297 298 297 299 299 298 293 291 291 292 294 297 298 298 297 294 293 290 290
291 293 292 292 293 295 293 292 292 292 293 294 294 295 295 295 295 295 295 295 295 296 295 296 295 294 295 294 298 298 293 291 289 289 291 293 297 297 297 295 292 291 291
291 292 291 292 293 295 292 291 291 293 293 293 292 292 292 293 294 294 295 294 294 293 294 293 293 293 292 296 297 297 297 295 289 287 288 292 294 294 295 294 294 293 291
290 291 292 292 294 294 292 291 292 293 292 292 291 291 291 292 293 292 293 293 292 294 294 293 292 291 290 291 296 296 297 297 289 288 290 291 290 290 289 291 291 289 286
288 290 291 291 291 293 293 292 293 292 292 292 291 291 290 291 292 293 293 294 293 293 294 293 292 292 288 290 290 292 292 294 290 291 288 287 288 288 286 284 284 283 282
287 288 289 289 289 291 292 292 293 292 291 292 292 291 291 290 290 292 292 293 295 296 294 295 294 291 289 289 292 291 289 288 288 285 283 281 280 279 280 280 280 280 281
285 285 285 285 286 287 289 291 292 291 290 291 292 291 291 291 290 290 290 295 296 298 298 298 297 295 296 295 294 293 293 291 291 283 280 280 279 279 279 279 279 280 281
Wind_Speed
7 6 4 3 5 4 5 5 6 4 3 2 1 3 4 2 1 1 1 3 4 4 3 3 4 4 4 5 6 3 4 4 4 3 4 6 6 7 6 7 8 8 7
7 6 3 2 3 6 6 5 4 5 4 3 2 2 2 2 2 2 4 4 4 5 4 4 4 4 3 5 5 5 4 3 4 5 3 6 5 7 9 9 8 10 8
6 7 6 4 4 5 5 4 3 4 4 5 2 2 1 2 2 2 2 3 4 5 5 5 3 5 6 5 5 4 5 6 4 6 5 2 5 2 3 10 10 12 10
7 6 6 5 5 6 3 4 6 6 5 3 2 4 3 3 3 3 2 3 2 4 5 6 5 6 6 6 7 7 8 4 7 4 7 9 3 3 4 2 4 8 11
5 7 7 6 4 4 4 4 3 4 4 4 5 4 4 4 3 3 4 2 4 5 5 5 6 7 6 7 8 8 8 8 8 7 5 5 6 6 9 10 6 3 6
4 5 5 4 3 1 3 4 4 6 6 6 7 7 7 6 4 4 4 3 3 3 5 5 5 6 6 8 8 9 10 9 9 8 7 7 6 7 8 9 8 9 8
5 6 6 6 6 6 6 6 6 7 7 7 7 7 8 7 7 6 4 4 3 3 7 5 5 5 6 7 8 8 9 10 9 11 9 9 9 8 9 9 8 8 5
6 7 8 7 7 7 6 6 7 7 7 7 8 7 7 4 5 6 4 4 4 4 7 8 8 9 7 8 8 6 8 10 9 12 11 9 9 9 9 10 8 10 10
7 7 8 7 7 8 8 7 7 8 7 7 6 7 6 6 6 7 5 4 5 4 4 8 9 10 8 8 8 7 10 10 10 11 10 10 9 9 9 8 8 9 12
8 8 7 7 6 6 7 6 6 8 8 7 6 6 7 7 7 6 7 6 6 5 5 6 9 9 6 7 8 8 9 11 9 8 11 11 10 11 10 9 10 10 11
6 7 7 7 6 6 6 6 6 7 8 7 7 7 7 7 7 6 7 6 6 6 6 6 10 10 6 7 7 8 10 11 11 10 12 13 14 11 11 10 10 10 10
4 5 7 8 8 8 8 8 7 6 7 7 7 8 7 7 7 8 8 7 7 7 7 6 8 8 6 6 9 8 7 8 10 11 12 13 10 12 10 8 11 10 10
3 4 6 7 7 7 8 8 8 8 8 7 7 7 8 7 9 9 8 7 7 8 7 7 7 6 6 9 8 6 9 11 10 11 12 14 14 14 11 11 10 9 9
4 4 6 7 7 7 7 7 7 7 8 8 8 8 8 8 9 9 8 8 7 8 7 7 7 6 6 10 6 4 6 9 10 12 13 14 14 17 13 11 11 10 9
8 6 7 7 7 8 7 7 7 7 7 8 8 9 9 8 8 8 8 7 7 7 7 7 7 5 7 9 5 4 7 8 10 12 13 13 14 19 17 8 9 10 10
7 7 8 8 8 8 10 10 11 11 6 10 10 10 9 8 8 9 9 8 8 7 7 7 7 6 6 9 8 6 7 8 9 10 12 12 13 9 10 10 14 15 10
6 11 13 11 8 9 12 8 12 13 11 12 8 9 9 10 10 9 9 10 10 7 8 8 7 8 7 10 10 7 5 6 7 9 10 10 6 8 7 8 8 1 4
13 15 15 11 10 12 12 11 10 11 12 12 9 8 8 10 11 8 9 10 8 9 8 9 8 7 7 10 11 8 5 5 5 7 8 10 7 7 8 5 3 5 8
8 11 10 7 8 9 11 12 11 13 13 14 12 12 12 10 11 10 10 10 7 9 8 6 9 9 7 10 11 7 5 5 5 4 5 10 5 9 8 4 5 5 5
8 8 8 9 7 8 11 9 12 13 14 15 15 14 15 14 12 12 10 10 7 11 7 9 7 10 8 11 11 8 4 5 4 4 4 10 7 8 7 2 3 5 3
10 10 7 10 10 12 7 10 10 13 14 15 16 16 15 14 14 12 10 8 8 9 8 9 7 7 7 8 14 12 5 5 4 3 2 2 8 8 10 8 4 2 5
8 7 10 11 10 7 7 10 11 12 13 15 15 15 16 13 12 12 12 9 7 7 9 8 7 6 6 11 13 12 13 9 5 4 2 1 5 5 7 6 8 9 7
7 8 10 12 12 12 8 10 14 13 14 14 15 15 15 13 14 12 12 9 6 7 7 7 8 6 5 5 14 12 12 13 5 4 6 5 5 6 6 7 6 5 3
10 9 9 12 14 14 13 10 12 12 13 19 15 13 13 15 13 10 9 9 6 6 7 8 8 7 5 6 5 5 5 9 6 9 5 5 6 7 5 5 5 4 4
7 8 9 10 13 15 15 13 13 9 11 15 16 13 12 13 14 11 9 9 10 9 8 9 9 7 8 10 13 11 6 6 8 6 3 3 2 3 3 3 4 4 4
9 10 10 10 13 14 16 15 13 11 9 13 11 11 11 10 11 12 12 14 20 16 18 19 12 8 14 14 21 21 18 17 18 4 3 3 4 4 4 3 3 3 4
Wind_Direction
297 318 131 132 111 74 81 125 126 136 121 116 197 268 247 257 229 111 332 331 318 321 325 311 304 292 278 268 270 262 251 267 237 247 259 257 244 232 221 223 222 216 188
316 310 298 93 165 156 157 147 168 177 191 173 190 220 214 253 249 276 304 307 314 311 279 259 263 264 276 292 292 283 278 238 220 247 223 269 288 237 231 232 232 234 230
305 311 297 293 196 181 206 238 234 205 202 202 186 252 309 330 317 297 284 269 288 300 298 287 273 276 273 263 268 279 273 275 260 224 225 242 234 247 214 230 231 231 226
328 313 318 334 236 226 227 218 208 211 226 202 203 215 225 245 238 233 228 274 286 275 272 283 271 258 259 256 259 263 260 260 263 277 243 254 209 233 295 268 254 243 244
312 312 300 298 313 252 215 211 240 263 242 219 223 234 254 252 261 273 273 274 311 290 272 270 268 266 261 258 255 259 258 258 267 254 256 255 258 251 248 263 256 266 235
280 288 290 330 313 254 211 232 244 255 253 233 224 223 238 254 266 272 269 264 266 279 290 263 265 271 261 260 255 254 254 258 259 256 264 253 245 252 248 260 256 253 249
291 279 277 284 279 271 258 248 235 254 253 235 231 233 234 236 238 241 239 244 240 273 287 277 270 279 279 277 265 254 251 251 252 254 251 254 256 254 252 254 257 257 255
343 325 294 280 272 271 259 247 252 254 250 249 248 238 236 231 237 239 241 229 226 237 281 288 287 293 285 283 275 275 263 250 249 252 250 252 253 252 254 258 262 266 266
347 333 341 333 308 295 277 255 260 266 265 252 250 252 251 249 246 249 236 225 228 229 251 283 290 289 279 270 274 274 273 262 256 250 248 247 253 255 252 246 239 251 266
357 353 347 343 330 318 296 290 267 256 264 269 260 254 249 246 245 246 248 242 242 235 242 268 277 285 287 283 281 273 280 268 253 252 252 251 250 248 244 240 242 240 252
2 356 352 346 341 346 348 315 299 284 278 263 258 255 256 251 252 245 246 246 244 231 235 248 275 275 266 281 287 279 284 292 276 252 253 253 254 249 244 232 232 237 242
40 14 4 354 348 341 337 331 318 306 277 266 260 254 250 243 243 241 240 235 239 225 231 235 261 261 257 262 286 292 300 300 296 298 289 259 254 257 243 231 235 237 239
54 30 9 352 335 329 328 328 327 321 308 302 286 274 259 250 244 238 237 237 232 225 232 232 244 251 251 285 284 290 302 304 302 300 293 285 288 251 241 236 237 239 242
26 26 1 336 320 316 317 317 313 314 310 310 304 292 278 258 255 247 238 239 232 225 229 231 234 249 261 283 279 287 299 295 296 295 285 277 271 272 249 233 231 236 240
30 356 330 316 315 317 314 307 291 291 294 297 293 287 285 278 265 255 245 238 231 228 228 233 240 250 259 272 262 287 288 292 299 300 289 287 272 262 267 235 227 231 236
342 325 322 318 312 306 314 310 311 311 300 301 296 289 285 283 272 265 255 243 240 233 230 234 232 241 262 261 230 271 281 293 296 296 298 295 295 317 292 268 253 249 237
323 329 328 321 312 315 314 298 304 310 309 303 294 289 286 283 278 269 260 251 242 233 232 234 229 231 250 253 227 247 265 275 285 291 300 300 301 311 308 304 320 223 60
334 327 319 319 320 320 314 314 308 304 305 302 300 287 280 286 286 268 261 259 244 233 232 234 228 225 232 228 224 242 245 252 267 289 309 301 314 319 311 285 87 63 54
291 304 294 282 301 303 308 314 316 312 304 306 301 302 296 283 284 274 264 260 241 241 230 219 223 222 231 224 222 222 235 243 258 281 311 317 318 342 352 84 100 76 60
306 307 300 311 312 301 307 306 314 311 310 312 309 305 299 295 284 279 267 257 238 249 229 229 214 217 225 215 208 209 216 232 244 268 307 333 354 29 36 60 116 99 67
321 315 320 314 306 307 304 302 303 309 308 309 307 305 300 294 292 278 270 253 247 246 230 224 216 214 214 216 212 211 203 212 217 231 297 337 352 62 74 75 55 96 106
292 297 297 296 298 295 300 302 303 305 307 305 303 301 300 300 297 287 279 255 239 236 239 225 226 215 210 205 216 217 219 209 183 200 179 2 39 34 75 76 101 109 96
278 305 311 308 306 308 295 295 300 306 306 304 301 301 299 296 296 290 279 267 231 232 238 224 229 227 201 203 206 216 218 200 180 159 165 141 96 50 42 73 80 82 66
301 298 294 300 301 304 299 292 296 299 303 316 312 307 305 304 299 292 281 268 240 226 236 229 231 223 192 199 193 186 205 178 164 167 148 149 113 93 72 54 44 52 81
291 291 292 296 298 302 300 299 298 289 300 308 307 307 310 308 303 294 282 271 249 226 232 231 229 207 204 210 193 179 179 164 171 148 122 130 107 95 77 46 59 56 51
296 294 295 296 296 298 299 301 302 295 291 304 299 305 305 305 304 298 293 273 257 243 235 236 223 220 219 209 191 182 181 174 168 152 164 165 163 148 145 127 95 64 95